| time (UTC) | temp C | wind direction | speed KPH | gust KPH | rain 1hr cm | rain 24hr cm | rain mn cm | humidity % | barometer mb |
| 20260509224305 | 16 | 202 | 4.8 | 9.7 | 0.00 | 0.97 | 0.97 | 64 | 1006.6 |
| 20260509223801 | 16 | 196 | 11.3 | 19.3 | 0.00 | 0.97 | 0.97 | 62 | 1006.6 |
| 20260509223259 | 17 | 201 | 9.7 | 12.9 | 0.00 | 0.97 | 0.97 | 63 | 1006.7 |
| 20260509222755 | 17 | 219 | 14.5 | 14.5 | 0.00 | 0.97 | 0.97 | 63 | 1006.6 |
| 20260509222250 | 16 | 176 | 4.8 | 20.9 | 0.00 | 0.97 | 0.97 | 63 | 1006.4 |
| 20260509221746 | 16 | 203 | 9.7 | 14.5 | 0.00 | 0.97 | 0.97 | 63 | 1006.6 |
| 20260509221243 | 17 | 306 | 6.4 | 16.1 | 0.00 | 0.97 | 0.97 | 62 | 1006.7 |
| 20260509220739 | 17 | 208 | 16.1 | 27.4 | 0.00 | 0.97 | 0.97 | 61 | 1006.5 |
| 20260509220236 | 17 | 239 | 12.9 | 20.9 | 0.00 | 0.97 | 0.97 | 60 | 1006.6 |
| 20260509215731 | 18 | 265 | 9.7 | 16.1 | 0.00 | 0.97 | 0.97 | 60 | 1006.6 |
| 20260509215228 | 18 | 303 | 3.2 | 16.1 | 0.00 | 0.97 | 0.97 | 61 | 1006.2 |
| 20260509214725 | 17 | 200 | 8.0 | 22.5 | 0.00 | 0.97 | 0.97 | 62 | 1006.1 |
| 20260509214222 | 17 | 227 | 4.8 | 19.3 | 0.00 | 0.97 | 0.97 | 60 | 1006.4 |
| 20260509213719 | 17 | 251 | 11.3 | 20.9 | 0.00 | 0.97 | 0.97 | 61 | 1006.2 |
| 20260509213214 | 17 | 241 | 11.3 | 24.1 | 0.00 | 0.97 | 0.97 | 62 | 1006.6 |
| 20260509212712 | 17 | 241 | 6.4 | 19.3 | 0.00 | 0.97 | 0.97 | 61 | 1006.6 |
| 20260509212209 | 17 | 190 | 11.3 | 24.1 | 0.00 | 0.97 | 0.97 | 61 | 1006.4 |
| 20260509211705 | 17 | 263 | 6.4 | 20.9 | 0.00 | 0.97 | 0.97 | 63 | 1006.3 |
| 20260509211202 | 17 | 212 | 9.7 | 32.2 | 0.00 | 0.97 | 0.97 | 62 | 1006.8 |
| 20260509210658 | 17 | 277 | 9.7 | 11.3 | 0.00 | 0.97 | 0.97 | 62 | 1006.9 |
| 20260509210155 | 17 | 228 | 11.3 | 22.5 | 0.00 | 0.97 | 0.97 | 61 | 1006.9 |
| 20260509205651 | 18 | 240 | 9.7 | 14.5 | 0.00 | 0.97 | 0.97 | 62 | 1006.9 |
| 20260509205150 | 18 | 260 | 3.2 | 12.9 | 0.00 | 0.97 | 0.97 | 62 | 1007.2 |
| 20260509204646 | 17 | 216 | 4.8 | 17.7 | 0.00 | 0.97 | 0.97 | 62 | 1007.0 |
| 20260509204143 | 17 | 252 | 8.0 | 17.7 | 0.00 | 0.97 | 0.97 | 62 | 1007.0 |
| 20260509203639 | 16 | 183 | 8.0 | 30.6 | 0.00 | 0.97 | 0.97 | 65 | 1007.3 |
| 20260509203137 | 16 | 236 | 3.2 | 11.3 | 0.00 | 0.97 | 0.97 | 67 | 1007.3 |
| 20260509202637 | 16 | 270 | 0.0 | 12.9 | 0.00 | 0.97 | 0.97 | 68 | 1007.2 |
| 20260509202133 | 17 | 228 | 6.4 | 24.1 | 0.00 | 0.97 | 0.97 | 66 | 1007.3 |
| 20260509201628 | 16 | 256 | 8.0 | 19.3 | 0.00 | 0.97 | 0.97 | 68 | 1007.4 |
| 20260509201126 | 16 | 299 | 0.0 | 25.7 | 0.00 | 0.97 | 0.97 | 68 | 1007.7 |
| 20260509200621 | 16 | 179 | 8.0 | 22.5 | 0.00 | 0.97 | 0.97 | 67 | 1007.4 |
| 20260509200117 | 16 | 265 | 3.2 | 14.5 | 0.00 | 0.97 | 0.97 | 71 | 1007.4 |
| 20260509195613 | 16 | 227 | 8.0 | 19.3 | 0.00 | 0.97 | 0.97 | 68 | 1007.7 |
| 20260509195107 | 17 | 190 | 4.8 | 20.9 | 0.00 | 0.97 | 0.97 | 69 | 1007.6 |
| 20260509194607 | 16 | 171 | 11.3 | 29.0 | 0.00 | 0.97 | 0.97 | 71 | 1007.8 |
| 20260509194105 | 16 | 262 | 14.5 | 17.7 | 0.00 | 0.97 | 0.97 | 71 | 1007.8 |
| 20260509193601 | 17 | 154 | 0.0 | 16.1 | 0.00 | 0.97 | 0.97 | 69 | 1007.8 |
| 20260509193057 | 16 | 258 | 4.8 | 11.3 | 0.00 | 0.97 | 0.97 | 71 | 1007.9 |
| 20260509192554 | 17 | 194 | 11.3 | 12.9 | 0.00 | 0.97 | 0.97 | 73 | 1008.0 |
| 20260509192048 | 16 | 214 | 11.3 | 24.1 | 0.00 | 0.97 | 0.97 | 71 | 1008.3 |
| 20260509191543 | 16 | 199 | 3.2 | 20.9 | 0.00 | 0.97 | 0.97 | 73 | 1008.1 |
| 20260509191039 | 15 | 229 | 8.0 | 14.5 | 0.00 | 0.97 | 0.97 | 74 | 1008.3 |
| 20260509190536 | 15 | 221 | 14.5 | 19.3 | 0.00 | 0.97 | 0.97 | 73 | 1008.5 |
| 20260509190034 | 16 | 270 | 6.4 | 17.7 | 0.00 | 0.97 | 0.97 | 74 | 1008.4 |
| 20260509185531 | 16 | 187 | 3.2 | 11.3 | 0.00 | 0.97 | 0.97 | 76 | 1008.3 |
| 20260509185027 | 15 | 251 | 17.7 | 22.5 | 0.00 | 0.97 | 0.97 | 77 | 1008.4 |
| 20260509184526 | 16 | 189 | 0.0 | 14.5 | 0.00 | 0.97 | 0.97 | 78 | 1008.2 |
| 20260509184022 | 15 | 228 | 6.4 | 24.1 | 0.00 | 0.97 | 0.97 | 78 | 1008.3 |
| 20260509183517 | 15 | 308 | 6.4 | 19.3 | 0.00 | 0.97 | 0.97 | 79 | 1008.3 |
| 20260509183013 | 15 | 155 | 9.7 | 27.4 | 0.00 | 0.97 | 0.97 | 78 | 1008.2 |
| 20260509182509 | 15 | 273 | 6.4 | 20.9 | 0.00 | 0.97 | 0.97 | 78 | 1008.2 |
| 20260509182007 | 15 | 280 | 8.0 | 22.5 | 0.00 | 0.97 | 0.97 | 80 | 1008.4 |
| 20260509181505 | 15 | 202 | 12.9 | 17.7 | 0.00 | 0.97 | 0.97 | 80 | 1008.2 |
| 20260509181002 | 15 | 220 | 9.7 | 9.7 | 0.00 | 0.97 | 0.97 | 81 | 1008.5 |
| 20260509180457 | 15 | 258 | 8.0 | 16.1 | 0.00 | 0.97 | 0.97 | 82 | 1008.7 |
| 20260509175955 | 15 | 198 | 4.8 | 11.3 | 0.00 | 0.97 | 0.97 | 83 | 1008.4 |
| 20260509175450 | 14 | 225 | 4.8 | 9.7 | 0.00 | 0.97 | 0.97 | 85 | 1008.7 |
| 20260509174947 | 14 | 187 | 6.4 | 6.4 | 0.00 | 0.97 | 0.97 | 84 | 1008.7 |
| 20260509174443 | 13 | 212 | 6.4 | 22.5 | 0.00 | 0.97 | 0.97 | 85 | 1008.7 |
| 20260509173938 | 13 | 188 | 4.8 | 11.3 | 0.00 | 0.97 | 0.97 | 86 | 1008.6 |
| 20260509173433 | 13 | 297 | 6.4 | 9.7 | 0.00 | 0.97 | 0.97 | 88 | 1008.6 |
| 20260509172930 | 13 | 187 | 8.0 | 14.5 | 0.00 | 0.97 | 0.97 | 91 | 1008.7 |
| 20260509172427 | 12 | 291 | 0.0 | 8.0 | 0.00 | 0.97 | 0.97 | 94 | 1008.6 |
| 20260509171922 | 12 | 197 | 8.0 | 9.7 | 0.00 | 0.97 | 0.97 | 97 | 1008.9 |
| 20260509171419 | 11 | 214 | 6.4 | 8.0 | 0.00 | 0.97 | 0.97 | 99 | 1008.7 |
| 20260509170915 | 11 | 188 | 4.8 | 9.7 | 0.00 | 0.97 | 0.97 | 99 | 1009.2 |
| 20260509170411 | 10 | 277 | 6.4 | 12.9 | 0.00 | 0.97 | 0.97 | 99 | 1009.2 |
| 20260509165907 | 10 | 270 | 1.6 | 3.2 | 0.00 | 0.97 | 0.97 | 99 | 1009.1 |
| 20260509165401 | 10 | 261 | 0.0 | 4.8 | 0.00 | 0.97 | 0.97 | 99 | 1009.0 |
| 20260509164857 | 10 | 216 | 0.0 | 6.4 | 0.00 | 0.97 | 0.97 | 99 | 1009.1 |
| 20260509164353 | 10 | 187 | 1.6 | 12.9 | 0.00 | 0.97 | 0.97 | 99 | 1009.1 |
| 20260509163849 | 10 | 275 | 6.4 | 9.7 | 0.00 | 0.97 | 0.97 | 99 | 1008.8 |
| 20260509163346 | 10 | 199 | 4.8 | 6.4 | 0.00 | 0.97 | 0.97 | 99 | 1009.0 |
| 20260509162845 | 10 | 253 | 0.0 | 8.0 | 0.00 | 0.97 | 0.97 | 99 | 1008.8 |
| 20260509162338 | 10 | 220 | 0.0 | 3.2 | 0.00 | 0.97 | 0.97 | 99 | 1008.9 |
| 20260509161835 | 10 | 187 | 3.2 | 6.4 | 0.00 | 0.97 | 0.97 | 99 | 1009.1 |
| 20260509161331 | 10 | 249 | 0.0 | 8.0 | 0.00 | 0.97 | 0.97 | 99 | 1008.9 |
| 20260509160826 | 10 | 237 | 1.6 | 6.4 | 0.00 | 0.97 | 0.97 | 99 | 1009.0 |
| 20260509160323 | 10 | 180 | 0.0 | 3.2 | 0.00 | 0.97 | 0.97 | 99 | 1008.9 |
| 20260509155818 | 10 | 221 | 0.0 | 9.7 | 0.00 | 0.97 | 0.97 | 99 | 1008.9 |
| 20260509155315 | 10 | 270 | 3.2 | 6.4 | 0.00 | 0.97 | 0.97 | 99 | 1008.9 |
| 20260509154811 | 10 | 199 | 6.4 | 6.4 | 0.00 | 0.97 | 0.97 | 99 | 1009.0 |
| 20260509154308 | 10 | 147 | 0.0 | 6.4 | 0.00 | 0.97 | 0.97 | 99 | 1008.5 |
| 20260509153805 | 10 | 191 | 4.8 | 4.8 | 0.00 | 0.97 | 0.97 | 99 | 1008.7 |
| 20260509153301 | 10 | 186 | 0.0 | 6.4 | 0.00 | 0.97 | 0.97 | 99 | 1008.8 |
| 20260509152758 | 10 | 190 | 3.2 | 9.7 | 0.00 | 0.97 | 0.97 | 99 | 1008.7 |
| 20260509152254 | 10 | 182 | 6.4 | 9.7 | 0.00 | 0.97 | 0.97 | 99 | 1008.7 |
| 20260509151751 | 10 | 180 | 0.0 | 6.4 | 0.00 | 0.97 | 0.97 | 99 | 1008.8 |
| 20260509151247 | 10 | 206 | 3.2 | 6.4 | 0.00 | 0.97 | 0.97 | 99 | 1009.0 |
| 20260509150746 | 10 | 157 | 3.2 | 9.7 | 0.00 | 0.97 | 0.97 | 99 | 1008.9 |
| 20260509150244 | 9 | 242 | 4.8 | 8.0 | 0.00 | 0.97 | 0.97 | 99 | 1008.5 |
| 20260509145741 | 9 | 206 | 3.2 | 8.0 | 0.00 | 0.97 | 0.97 | 99 | 1009.0 |
| 20260509145240 | 9 | 198 | 1.6 | 4.8 | 0.00 | 0.97 | 0.97 | 99 | 1008.8 |
| 20260509144737 | 9 | 203 | 1.6 | 11.3 | 0.00 | 0.97 | 0.97 | 99 | 1008.9 |
| 20260509144234 | 9 | 187 | 4.8 | 9.7 | 0.00 | 0.97 | 0.97 | 99 | 1008.8 |
| 20260509143731 | 9 | 190 | 3.2 | 6.4 | 0.00 | 0.97 | 0.97 | 99 | 1009.0 |
| 20260509143229 | 9 | 184 | 3.2 | 6.4 | 0.00 | 0.97 | 0.97 | 99 | 1008.9 |
| 20260509142724 | 8 | 185 | 3.2 | 3.2 | 0.00 | 0.97 | 0.97 | 99 | 1008.8 |
| 20260509142221 | 8 | 253 | 4.8 | 9.7 | 0.00 | 0.97 | 0.97 | 99 | 1008.7 |
| 20260509141716 | 8 | 319 | 3.2 | 6.4 | 0.00 | 0.97 | 0.97 | 99 | 1008.9 |
| 20260509141214 | 8 | 180 | 3.2 | 4.8 | 0.00 | 0.97 | 0.97 | 99 | 1008.7 |
| 20260509140710 | 8 | 281 | 3.2 | 6.4 | 0.00 | 0.97 | 0.97 | 99 | 1008.7 |
| 20260509140208 | 8 | 222 | 4.8 | 4.8 | 0.00 | 0.97 | 0.97 | 99 | 1008.7 |
| 20260509135705 | 8 | 220 | 0.0 | 6.4 | 0.00 | 0.97 | 0.97 | 99 | 1008.7 |
| 20260509135203 | 8 | 216 | 3.2 | 8.0 | 0.00 | 0.97 | 0.97 | 99 | 1008.8 |
| 20260509134659 | 8 | 232 | 4.8 | 11.3 | 0.00 | 0.97 | 0.97 | 99 | 1008.9 |
| 20260509134157 | 8 | 212 | 0.0 | 8.0 | 0.00 | 0.97 | 0.97 | 99 | 1008.9 |
| 20260509133654 | 8 | 135 | 4.8 | 6.4 | 0.00 | 0.97 | 0.97 | 99 | 1009.0 |
| 20260509133151 | 8 | 195 | 0.0 | 4.8 | 0.00 | 0.97 | 0.97 | 99 | 1009.0 |
| 20260509132649 | 8 | 261 | 0.0 | 6.4 | 0.00 | 0.97 | 0.97 | 99 | 1009.0 |
| 20260509132147 | 8 | 180 | 3.2 | 3.2 | 0.00 | 0.97 | 0.97 | 99 | 1009.2 |
| 20260509131643 | 8 | 166 | 3.2 | 8.0 | 0.00 | 0.97 | 0.97 | 99 | 1009.0 |
| 20260509131140 | 8 | 176 | 3.2 | 4.8 | 0.00 | 0.97 | 0.97 | 99 | 1009.0 |
| 20260509130636 | 8 | 208 | 4.8 | 6.4 | 0.00 | 0.97 | 0.97 | 99 | 1008.9 |
| 20260509130132 | 8 | 208 | 4.8 | 8.0 | 0.00 | 0.97 | 0.97 | 99 | 1008.6 |
| 20260509125629 | 8 | 177 | 4.8 | 6.4 | 0.00 | 0.97 | 0.97 | 99 | 1008.9 |
| 20260509125126 | 8 | 166 | 0.0 | 6.4 | 0.00 | 0.97 | 0.97 | 99 | 1009.0 |
| 20260509124622 | 8 | 233 | 4.8 | 6.4 | 0.05 | 0.97 | 0.97 | 99 | 1008.9 |
| 20260509124119 | 8 | 124 | 3.2 | 11.3 | 0.13 | 0.97 | 0.97 | 99 | 1009.1 |
| 20260509123617 | 8 | 177 | 4.8 | 6.4 | 0.05 | 0.94 | 0.94 | 99 | 1008.8 |
| 20260509123114 | 8 | 150 | 3.2 | 8.0 | 0.00 | 0.94 | 0.94 | 99 | 1009.3 |
| 20260509122610 | 8 | 180 | 0.0 | 6.4 | 0.00 | 0.94 | 0.94 | 99 | 1009.1 |
| 20260509122107 | 8 | 101 | 3.2 | 8.0 | 0.00 | 0.94 | 0.94 | 99 | 1009.3 |
| 20260509121603 | 8 | 195 | 0.0 | 3.2 | 0.00 | 0.94 | 0.94 | 99 | 1009.2 |
| 20260509121101 | 8 | 270 | 0.0 | 4.8 | 0.00 | 0.94 | 0.94 | 99 | 1009.6 |
| 20260509120559 | 8 | 251 | 0.0 | 0.0 | 0.00 | 0.94 | 0.94 | 99 | 1009.2 |
| 20260509120057 | 8 | 173 | 3.2 | 6.4 | 0.00 | 0.94 | 0.94 | 99 | 1009.2 |
| 20260509115554 | 8 | 165 | 4.8 | 4.8 | 0.00 | 0.94 | 0.94 | 99 | 1009.3 |
| 20260509115052 | 8 | 177 | 3.2 | 8.0 | 0.00 | 0.94 | 0.94 | 99 | 1009.1 |
| 20260509114550 | 8 | 131 | 0.0 | 11.3 | 0.00 | 0.94 | 0.94 | 99 | 1009.2 |
| 20260509114048 | 8 | 90 | 0.0 | 6.4 | 0.00 | 0.94 | 0.94 | 99 | 1009.2 |
| 20260509113546 | 8 | 114 | 1.6 | 3.2 | 0.00 | 0.94 | 0.94 | 99 | 1009.3 |
| 20260509113044 | 8 | 180 | 3.2 | 6.4 | 0.00 | 0.94 | 0.94 | 99 | 1009.3 |
| 20260509112540 | 8 | 166 | 1.6 | 8.0 | 0.00 | 0.94 | 0.94 | 99 | 1009.4 |
| 20260509112037 | 8 | 155 | 4.8 | 6.4 | 0.00 | 0.94 | 0.94 | 99 | 1009.3 |
| 20260509111534 | 8 | 148 | 0.0 | 4.8 | 0.00 | 0.94 | 0.94 | 99 | 1009.1 |
| 20260509111031 | 8 | 180 | 3.2 | 4.8 | 0.00 | 0.94 | 0.94 | 99 | 1009.1 |
| 20260509110528 | 7 | 164 | 3.2 | 6.4 | 0.00 | 0.94 | 0.94 | 99 | 1009.2 |
| 20260509110025 | 7 | 185 | 0.0 | 4.8 | 0.00 | 0.94 | 0.94 | 99 | 1009.3 |
| 20260509105523 | 7 | 194 | 1.6 | 8.0 | 0.00 | 0.94 | 0.94 | 99 | 1009.2 |
| 20260509105020 | 7 | 173 | 0.0 | 6.4 | 0.00 | 0.94 | 0.94 | 99 | 1009.4 |
| 20260509104517 | 7 | 180 | 1.6 | 3.2 | 0.00 | 0.94 | 0.94 | 99 | 1009.2 |
| 20260509104014 | 7 | 174 | 0.0 | 6.4 | 0.05 | 0.94 | 0.94 | 99 | 1009.4 |
| 20260509103512 | 7 | 33 | 4.8 | 6.4 | 0.18 | 0.94 | 0.94 | 99 | 1009.3 |
| 20260509103010 | 7 | 177 | 0.0 | 4.8 | 0.23 | 0.94 | 0.94 | 99 | 1009.3 |
| 20260509102507 | 7 | 180 | 0.0 | 3.2 | 0.18 | 0.91 | 0.91 | 99 | 1009.1 |
| 20260509102003 | 7 | 90 | 1.6 | 4.8 | 0.18 | 0.89 | 0.89 | 99 | 1009.1 |
| 20260509101500 | 7 | 128 | 3.2 | 8.0 | 0.23 | 0.89 | 0.89 | 99 | 1009.3 |
| 20260509100957 | 7 | 150 | 0.0 | 4.8 | 0.30 | 0.86 | 0.86 | 99 | 1009.3 |
| 20260509100454 | 7 | 147 | 3.2 | 9.7 | 0.36 | 0.84 | 0.84 | 99 | 1009.2 |
| 20260509095951 | 7 | 177 | 4.8 | 6.4 | 0.30 | 0.81 | 0.81 | 99 | 1009.3 |
| 20260509095448 | 7 | 180 | 0.0 | 6.4 | 0.18 | 0.76 | 0.76 | 99 | 1009.4 |
| 20260509094945 | 7 | 170 | 4.8 | 6.4 | 0.05 | 0.74 | 0.74 | 99 | 1009.4 |
| 20260509094441 | 7 | 188 | 4.8 | 11.3 | 0.00 | 0.74 | 0.74 | 99 | 1009.4 |
| 20260509093939 | 7 | 180 | 3.2 | 8.0 | 0.05 | 0.74 | 0.74 | 99 | 1009.2 |
| 20260509093436 | 7 | 192 | 0.0 | 4.8 | 0.05 | 0.74 | 0.74 | 99 | 1009.3 |
| 20260509092934 | 7 | 180 | 1.6 | 6.4 | 0.00 | 0.74 | 0.74 | 99 | 1009.7 |
| 20260509092432 | 7 | 186 | 6.4 | 8.0 | 0.00 | 0.74 | 0.74 | 99 | 1009.4 |
| 20260509091931 | 7 | 135 | 3.2 | 6.4 | 0.00 | 0.74 | 0.74 | 99 | 1009.4 |
| 20260509091427 | 7 | 265 | 4.8 | 6.4 | 0.13 | 0.74 | 0.74 | 99 | 1009.6 |
| 20260509090924 | 7 | 162 | 1.6 | 6.4 | 0.18 | 0.71 | 0.71 | 99 | 1009.3 |
| 20260509090421 | 7 | 126 | 0.0 | 8.0 | 0.18 | 0.71 | 0.71 | 99 | 1009.4 |
| 20260509085919 | 7 | 213 | 3.2 | 8.0 | 0.18 | 0.69 | 0.69 | 99 | 1009.4 |
| 20260509085416 | 7 | 144 | 4.8 | 11.3 | 0.18 | 0.69 | 0.69 | 99 | 1009.3 |
| 20260509084912 | 7 | 143 | 3.2 | 11.3 | 0.30 | 0.66 | 0.66 | 99 | 1009.7 |
| 20260509084409 | 7 | 182 | 4.8 | 6.4 | 0.36 | 0.66 | 0.66 | 99 | 1009.4 |
| 20260509083906 | 7 | 180 | 4.8 | 9.7 | 0.18 | 0.61 | 0.61 | 99 | 1009.7 |
| 20260509083403 | 7 | 159 | 3.2 | 4.8 | 0.18 | 0.58 | 0.58 | 99 | 1009.6 |
| 20260509082900 | 7 | 154 | 4.8 | 6.4 | 0.23 | 0.58 | 0.58 | 99 | 1009.6 |
| 20260509082357 | 7 | 147 | 3.2 | 8.0 | 0.18 | 0.56 | 0.56 | 99 | 1009.6 |
| 20260509081854 | 7 | 173 | 1.6 | 4.8 | 0.05 | 0.53 | 0.53 | 99 | 1009.6 |
| 20260509081351 | 7 | 190 | 3.2 | 8.0 | 0.13 | 0.53 | 0.53 | 99 | 1009.4 |
| 20260509080849 | 7 | 168 | 0.0 | 3.2 | 0.18 | 0.51 | 0.51 | 99 | 1009.6 |
| 20260509080346 | 7 | 145 | 1.6 | 6.4 | 0.18 | 0.51 | 0.51 | 99 | 1009.7 |
| 20260509075844 | 7 | 131 | 0.0 | 6.4 | 0.23 | 0.48 | 0.48 | 99 | 1009.6 |
| 20260509075341 | 7 | 180 | 0.0 | 4.8 | 0.36 | 0.48 | 0.48 | 99 | 1009.6 |
| 20260509074838 | 7 | 120 | 1.6 | 4.8 | 0.48 | 0.46 | 0.46 | 99 | 1009.9 |
| 20260509074336 | 7 | 158 | 6.4 | 6.4 | 0.30 | 0.43 | 0.43 | 99 | 1009.9 |
| 20260509073832 | 7 | 203 | 0.0 | 3.2 | 0.05 | 0.38 | 0.38 | 99 | 1009.7 |
| 20260509073329 | 7 | 159 | 0.0 | 4.8 | 0.05 | 0.38 | 0.38 | 99 | 1009.7 |
| 20260509072825 | 7 | 165 | 0.0 | 4.8 | 0.05 | 0.36 | 0.36 | 99 | 1009.8 |
| 20260509072322 | 7 | 162 | 3.2 | 4.8 | 0.18 | 0.36 | 0.36 | 99 | 1009.8 |
| 20260509071819 | 7 | 180 | 3.2 | 4.8 | 0.23 | 0.36 | 0.36 | 99 | 1009.6 |
| 20260509071316 | 7 | 141 | 3.2 | 4.8 | 0.30 | 0.33 | 0.33 | 99 | 1009.6 |
| 20260509070813 | 7 | 120 | 1.6 | 6.4 | 0.30 | 0.30 | 0.30 | 99 | 1009.8 |
| 20260509070310 | 7 | 157 | 0.0 | 3.2 | 0.18 | 0.28 | 0.28 | 99 | 1009.8 |
| 20260509065806 | 7 | 121 | 3.2 | 4.8 | 0.18 | 0.25 | 0.25 | 99 | 1009.8 |
| 20260509065305 | 7 | 162 | 3.2 | 3.2 | 0.23 | 0.25 | 0.25 | 99 | 1010.0 |
| 20260509064758 | 7 | 115 | 3.2 | 6.4 | 0.13 | 0.23 | 0.23 | 99 | 1010.2 |
| 20260509064256 | 7 | 195 | 0.0 | 6.4 | 0.13 | 0.20 | 0.20 | 99 | 1010.4 |
| 20260509063753 | 7 | 160 | 0.0 | 4.8 | 0.13 | 0.20 | 0.20 | 99 | 1010.3 |
| 20260509063249 | 7 | 146 | 1.6 | 4.8 | 0.05 | 0.18 | 0.18 | 99 | 1010.6 |
| 20260509062747 | 7 | 126 | 0.0 | 4.8 | 0.00 | 0.18 | 0.18 | 99 | 1010.5 |
| 20260509062243 | 7 | 140 | 0.0 | 4.8 | 0.00 | 0.18 | 0.18 | 99 | 1010.7 |
| 20260509061740 | 7 | 154 | 0.0 | 3.2 | 0.05 | 0.18 | 0.18 | 99 | 1010.6 |
| 20260509061239 | 7 | 157 | 0.0 | 3.2 | 0.13 | 0.18 | 0.18 | 99 | 1010.6 |
| 20260509060736 | 7 | 240 | 0.0 | 4.8 | 0.05 | 0.18 | 0.18 | 99 | 1010.6 |
| 20260509060232 | 7 | 157 | 0.0 | 4.8 | 0.05 | 0.15 | 0.15 | 99 | 1011.0 |
| 20260509055728 | 7 | 128 | 0.0 | 3.2 | 0.05 | 0.15 | 0.15 | 99 | 1010.9 |
| 20260509055224 | 7 | 162 | 1.6 | 4.8 | 0.00 | 0.15 | 0.15 | 99 | 1010.9 |
| 20260509054720 | 7 | 200 | 4.8 | 6.4 | 0.05 | 0.15 | 0.15 | 99 | 1011.0 |
| 20260509054217 | 7 | 171 | 3.2 | 4.8 | 0.05 | 0.15 | 0.15 | 99 | 1011.3 |
| 20260509053716 | 7 | 175 | 4.8 | 4.8 | 0.05 | 0.15 | 0.15 | 99 | 1011.1 |
| 20260509053212 | 7 | 229 | 1.6 | 8.0 | 0.13 | 0.15 | 0.15 | 99 | 1011.1 |
| 20260509052710 | 7 | 174 | 0.0 | 8.0 | 0.13 | 0.13 | 0.13 | 99 | 1011.4 |
| 20260509052208 | 7 | 112 | 4.8 | 8.0 | 0.13 | 0.13 | 0.13 | 99 | 1011.7 |
| 20260509051705 | 7 | 185 | 1.6 | 8.0 | 0.13 | 0.10 | 0.10 | 99 | 1011.8 |
| 20260509051203 | 7 | 248 | 4.8 | 4.8 | 0.05 | 0.10 | 0.10 | 99 | 1011.9 |
| 20260509050700 | 7 | 260 | 4.8 | 8.0 | 0.05 | 0.10 | 0.10 | 99 | 1011.7 |
| 20260509050156 | 7 | 103 | 1.6 | 6.4 | 0.05 | 0.10 | 0.10 | 99 | 1011.7 |
| 20260509045653 | 7 | 195 | 3.2 | 6.4 | 0.00 | 0.08 | 0.08 | 99 | 1011.5 |
| 20260509045150 | 7 | 181 | 9.7 | 9.7 | 0.00 | 0.08 | 0.08 | 99 | 1011.4 |
| 20260509044647 | 7 | 160 | 1.6 | 6.4 | 0.00 | 0.08 | 0.08 | 99 | 1011.5 |
| 20260509044145 | 7 | 215 | 1.6 | 6.4 | 0.00 | 0.08 | 0.08 | 99 | 1011.9 |
| 20260509043641 | 7 | 240 | 8.0 | 8.0 | 0.00 | 0.08 | 0.08 | 99 | 1011.8 |
| 20260509043137 | 7 | 170 | 3.2 | 4.8 | 0.00 | 0.08 | 0.08 | 99 | 1011.4 |
| 20260509042634 | 7 | 157 | 0.0 | 6.4 | 0.05 | 0.08 | 0.08 | 99 | 1011.8 |
| 20260509042129 | 7 | 150 | 3.2 | 4.8 | 0.13 | 0.08 | 0.08 | 99 | 1012.1 |
| 20260509041626 | 7 | 139 | 0.0 | 4.8 | 0.23 | 0.08 | 0.08 | 99 | 1011.9 |
| 20260509041124 | 7 | 180 | 3.2 | 8.0 | 0.30 | 0.05 | 0.05 | 99 | 1012.1 |
| 20260509040622 | 7 | 198 | 1.6 | 9.7 | 0.23 | 0.03 | 0.03 | 99 | 1012.0 |
| 20260509040119 | 7 | 169 | 6.4 | 9.7 | 0.13 | 1.09 | 1.09 | 99 | 1012.1 |
| 20260509035616 | 7 | 239 | 1.6 | 6.4 | 0.13 | 1.09 | 1.09 | 99 | 1012.2 |
| 20260509035112 | 7 | 18 | 1.6 | 4.8 | 0.05 | 1.07 | 1.07 | 99 | 1012.3 |
| 20260509034610 | 7 | 180 | 1.6 | 8.0 | 0.05 | 1.07 | 1.07 | 99 | 1012.0 |
| 20260509034107 | 7 | 327 | 0.0 | 3.2 | 0.13 | 1.07 | 1.07 | 99 | 1012.2 |
| 20260509033604 | 7 | 147 | 3.2 | 6.4 | 0.13 | 1.07 | 1.07 | 99 | 1012.1 |
| 20260509033101 | 7 | 135 | 0.0 | 3.2 | 0.18 | 1.04 | 1.04 | 99 | 1011.9 |
| 20260509032558 | 7 | 151 | 0.0 | 4.8 | 0.13 | 1.04 | 1.04 | 99 | 1012.2 |
| 20260509032055 | 7 | 180 | 4.8 | 4.8 | 0.05 | 1.02 | 1.02 | 99 | 1012.2 |
| 20260509031553 | 7 | 174 | 4.8 | 4.8 | 0.18 | 1.02 | 1.02 | 99 | 1012.4 |
| 20260509031050 | 7 | 157 | 1.6 | 3.2 | 0.23 | 1.02 | 1.02 | 99 | 1012.4 |
| 20260509030548 | 7 | 151 | 1.6 | 4.8 | 0.23 | 0.99 | 0.99 | 99 | 1012.2 |
| 20260509030044 | 7 | 126 | 0.0 | 4.8 | 0.23 | 0.97 | 0.97 | 99 | 1012.6 |
| 20260509025541 | 7 | 228 | 3.2 | 4.8 | 0.23 | 0.94 | 0.94 | 99 | 1012.8 |
| 20260509025036 | 7 | 145 | 1.6 | 3.2 | 0.23 | 0.94 | 0.94 | 99 | 1012.5 |
| 20260509024532 | 7 | 169 | 3.2 | 3.2 | 0.30 | 0.91 | 0.91 | 99 | 1012.7 |
| 20260509024029 | 7 | 173 | 0.0 | 3.2 | 0.30 | 0.89 | 0.89 | 99 | 1012.7 |
| 20260509023527 | 7 | 120 | 0.0 | 1.6 | 0.18 | 0.86 | 0.86 | 99 | 1012.7 |
| 20260509023023 | 7 | 114 | 1.6 | 3.2 | 0.13 | 0.84 | 0.84 | 99 | 1012.6 |
| 20260509022520 | 7 | 165 | 0.0 | 0.0 | 0.05 | 0.81 | 0.81 | 99 | 1012.7 |
| 20260509022018 | 7 | 123 | 1.6 | 4.8 | 0.05 | 0.81 | 0.81 | 99 | 1012.7 |
| 20260509021514 | 7 | 123 | 0.0 | 1.6 | 0.05 | 0.81 | 0.81 | 99 | 1012.5 |
| 20260509021011 | 7 | 154 | 0.0 | 3.2 | 0.13 | 0.81 | 0.81 | 99 | 1012.5 |
| 20260509020510 | 7 | 173 | 1.6 | 3.2 | 0.18 | 0.81 | 0.81 | 99 | 1012.6 |
| 20260509020006 | 7 | 145 | 0.0 | 3.2 | 0.23 | 0.79 | 0.79 | 99 | 1012.6 |
| 20260509015505 | 7 | 106 | 0.0 | 1.6 | 0.23 | 0.76 | 0.76 | 99 | 1012.6 |
| 20260509015002 | 7 | 157 | 0.0 | 1.6 | 0.23 | 0.74 | 0.74 | 99 | 1012.6 |
| 20260509014459 | 7 | 120 | 1.6 | 4.8 | 0.23 | 0.71 | 0.71 | 99 | 1012.5 |
| 20260509013954 | 7 | 126 | 0.0 | 3.2 | 0.36 | 0.71 | 0.71 | 99 | 1012.5 |
| 20260509013452 | 7 | 234 | 1.6 | 3.2 | 0.30 | 0.66 | 0.66 | 99 | 1012.6 |
| 20260509012947 | 7 | 123 | 0.0 | 3.2 | 0.23 | 0.64 | 0.64 | 99 | 1012.1 |
| 20260509012444 | 7 | 180 | 0.0 | 0.0 | 0.23 | 0.61 | 0.61 | 99 | 1012.3 |
| 20260509011941 | 7 | 135 | 0.0 | 3.2 | 0.23 | 0.61 | 0.61 | 99 | 1012.2 |
| 20260509011439 | 7 | 66 | 0.0 | 3.2 | 0.30 | 0.58 | 0.58 | 99 | 1011.9 |
| 20260509010936 | 7 | 114 | 0.0 | 4.8 | 0.18 | 0.56 | 0.56 | 99 | 1012.2 |
| 20260509010434 | 7 | 187 | 0.0 | 3.2 | 0.05 | 0.53 | 0.53 | 99 | 1011.8 |
| 20260509005930 | 7 | 185 | 0.0 | 3.2 | 0.05 | 0.51 | 0.51 | 98 | 1012.0 |
| 20260509005428 | 8 | 175 | 3.2 | 4.8 | 0.05 | 0.51 | 0.51 | 98 | 1011.8 |
| 20260509004923 | 8 | 180 | 3.2 | 3.2 | 0.00 | 0.51 | 0.51 | 98 | 1011.7 |
| 20260509004420 | 8 | 106 | 0.0 | 3.2 | 0.13 | 0.51 | 0.51 | 98 | 1011.8 |
| 20260509003918 | 8 | 180 | 0.0 | 3.2 | 0.30 | 0.51 | 0.51 | 98 | 1012.1 |
| 20260509003415 | 8 | 148 | 4.8 | 6.4 | 0.43 | 0.48 | 0.48 | 97 | 1012.2 |
| 20260509002911 | 8 | 219 | 4.8 | 4.8 | 0.36 | 0.46 | 0.46 | 97 | 1012.2 |
| 20260509002410 | 8 | 198 | 3.2 | 4.8 | 0.30 | 0.43 | 0.43 | 96 | 1012.0 |
| 20260509001907 | 8 | 257 | 4.8 | 6.4 | 0.13 | 0.38 | 0.38 | 96 | 1012.0 |
| 20260509001403 | 8 | 194 | 3.2 | 8.0 | 0.13 | 0.38 | 0.38 | 96 | 1011.9 |
| 20260509000900 | 8 | 270 | 0.0 | 4.8 | 0.05 | 0.36 | 0.36 | 97 | 1012.2 |
| 20260509000358 | 8 | 240 | 0.0 | 3.2 | 0.05 | 0.36 | 0.36 | 97 | 1011.9 |
| 20260508235853 | 8 | 189 | 3.2 | 8.0 | 0.05 | 0.36 | 0.36 | 97 | 1011.8 |
| 20260508235351 | 8 | 228 | 3.2 | 3.2 | 0.05 | 0.33 | 0.33 | 98 | 1011.7 |
| 20260508234848 | 8 | 162 | 0.0 | 3.2 | 0.05 | 0.33 | 0.33 | 98 | 1011.9 |
| 20260508234344 | 8 | 154 | 0.0 | 4.8 | 0.13 | 0.33 | 0.33 | 98 | 1011.5 |
| 20260508233843 | 8 | 135 | 3.2 | 3.2 | 0.05 | 0.33 | 0.33 | 98 | 1011.8 |
| 20260508233342 | 8 | 171 | 3.2 | 3.2 | 0.00 | 0.30 | 0.30 | 98 | 1011.7 |
| 20260508232838 | 8 | 173 | 1.6 | 3.2 | 0.05 | 0.30 | 0.30 | 98 | 1011.5 |
| 20260508232334 | 9 | 180 | 0.0 | 3.2 | 0.05 | 0.30 | 0.30 | 98 | 1011.5 |
| 20260508231833 | 9 | 165 | 0.0 | 0.0 | 0.00 | 0.30 | 0.30 | 98 | 1011.3 |
| 20260508231329 | 9 | 173 | 0.0 | 3.2 | 0.00 | 0.30 | 0.30 | 98 | 1011.5 |
| 20260508230826 | 9 | 180 | 1.6 | 3.2 | 0.05 | 0.30 | 0.30 | 98 | 1011.3 |
| 20260508230322 | 9 | 225 | 3.2 | 4.8 | 0.13 | 0.30 | 0.30 | 98 | 1011.5 |
| 20260508225820 | 9 | 270 | 0.0 | 3.2 | 0.13 | 0.28 | 0.28 | 98 | 1011.3 |
| 20260508225316 | 9 | 220 | 4.8 | 8.0 | 0.05 | 0.28 | 0.28 | 97 | 1011.5 |
| 20260508224815 | 9 | 199 | 6.4 | 6.4 | 0.00 | 0.28 | 0.28 | 97 | 1011.8 |